Location: Friedrichshafen
(47.6598°N, 9.4819°E)
Time: 05:16:47
(UTC+01:00)

ISS - Visible Passes

Search period start: 20 November 2017 00:00
Search period end: 30 November 2017 00:00
Orbit: 402 x 407 km, 51.6° (Epoch: 21 November)

Date Brightness Start Highest point End Pass type
(mag) Time Alt. Az. Time Alt. Az. Time Alt. Az.
27 Nov -1.2 19:06:50 10° SW 19:07:38 16° SSW 19:07:38 16° SSW visible
28 Nov -2.3 18:15:01 10° SSW 18:17:35 22° SE 18:17:35 22° SE visible
29 Nov -1.5 17:23:46 10° SSE 17:25:27 13° SE 17:27:09 10° ESE visible
29 Nov -2.2 18:58:09 10° WSW 19:00:07 33° SW 19:00:07 33° SW visible
